Flag for U.S.A. Weather past 2 weeks in Beaumont, Texas, U.S.A.

Now
76 °F

Mostly cloudy.


Feels Like: 77 °F
Forecast: 64 / 78 °F
Wind: 15 mph from South

Location: Jefferson County Airport

Current Time: Mar 4, 2015 at 3:20:29 PM

Latest Report: Mar 4, 2015 at 2:53 PM


Visibility: 10 mi

Pressure: 29.84 "Hg

Humidity: 74%

Dew point: 67 °F

Location of BeaumontLocation

Historic Weather in Beaumont — Graph

°F

Beaumont temperature yesterday

Maximum temperature yesterday: 80 °F (at 12:53 PM)
Minimum temperature yesterday: 57 °F (at 12:53 AM)
Average temperature yesterday: 67 °F

Past Weeks' High & Low Weather Summary

 TemperatureHumidityPressure
High81 °F (Feb 22, 12:53 PM)100% (Mar 3, 12:53 AM)30.44 "Hg (Mar 3, 12:53 AM)
Low33 °F (Feb 18, 12:53 AM)30% (Feb 18, 2:53 PM)29.80 "Hg (Feb 25, 3:00 PM)
Average54 °F78%30.15 "Hg
* Reported Feb 17 2:53 PM — Mar 4 2:01 PM, Beaumont, Weather by CustomWeather, © 2015

Note: Actual official high and low records may vary slightly from our data, if they occured in-between our weather recording intervals... More about our weather records

Advertising

Beaumont weather history for previous 24 hours

 ConditionsComfort  
Time TempWeatherWind HumidityBarometerVisibility
2:01 PM
Wed, Mar 4
81 °FBroken clouds.15 mph65%29.85 "Hg10 mi
1:53 PM80 °FMostly cloudy.15 mph64%29.85 "Hg10 mi
12:53 PM77 °FMostly cloudy.16 mph74%29.90 "Hg10 mi
11:53 AM77 °FMostly cloudy.10 mph74%29.93 "Hg10 mi
10:53 AM77 °FMostly cloudy.13 mph71%29.93 "Hg10 mi
9:53 AM75 °FMostly cloudy.15 mph76%29.93 "Hg10 mi
8:53 AM71 °FLow clouds.8 mph87%29.93 "Hg8 mi
7:53 AM68 °FLow clouds.6 mph93%29.92 "Hg7 mi
7:00 AM67 °FFog.5 mph93%29.91 "Hg5 mi
5:53 AM69 °FOvercast.10 mph93%29.88 "Hg8 mi
4:53 AM68 °FFog.8 mph96%29.88 "Hg5 mi
3:53 AM68 °FFog.9 mph93%29.88 "Hg5 mi
3:00 AM68 °FFog.7 mph96%29.89 "Hg6 mi
1:53 AM69 °FOvercast.12 mph93%29.90 "Hg8 mi
12:53 AM70 °FLow clouds.13 mph90%29.91 "Hg9 mi
12:00 AM69 °FOvercast.9 mph93%29.92 "Hg9 mi
10:53 PM
Tue, Mar 3
69 °FMostly cloudy.12 mph93%29.92 "Hg9 mi
9:53 PM69 °FLow clouds.8 mph90%29.93 "Hg9 mi
8:53 PM69 °FLow clouds.10 mph93%29.93 "Hg8 mi
8:00 PM69 °FMostly cloudy.8 mph90%29.93 "Hg10 mi
6:53 PM70 °FLow clouds.10 mph90%29.92 "Hg10 mi
5:53 PM71 °FBroken clouds.12 mph87%29.91 "Hg10 mi
4:53 PM73 °FBroken clouds.17 mph79%29.90 "Hg10 mi
3:53 PM78 °FPartly sunny.14 mph66%29.91 "Hg10 mi
Weather by CustomWeather, © 2015

See weather overviewHow to use our weather pages